This is the latest recevied weather packets stored in our database for station/object KF0JJO. If no packets are shown the sender has not sent any weather packets the latest 10 day(s).
| Time | Temp. | Humidity | Pressure | Rain* | Wind** | Luminosity | Snow |
|---|---|---|---|---|---|---|---|
| 1777713387 | 3.33° C | 67% | 1049.7 hPa | 0 mm | - | 0 W/m² | - |
| 1777713084 | 3.89° C | 66% | 1049.7 hPa | 0 mm | - | 0 W/m² | - |
| 1777712781 | 3.89° C | 64% | 1049.4 hPa | 0 mm | - | 0 W/m² | - |
| 1777712479 | 4.44° C | 63% | 1049.4 hPa | 0 mm | - | 0 W/m² | - |
| 1777712174 | 5° C | 61% | 1049.5 hPa | 0 mm | - | 0 W/m² | - |
| 1777711871 | 5° C | 57% | 1049.4 hPa | 0 mm | - | 0 W/m² | - |
| 1777711569 | 5.56° C | 57% | 1049.5 hPa | 0 mm | - | 0 W/m² | - |
| 1777711263 | 5.56° C | 56% | 1049.3 hPa | 0 mm | - | 0 W/m² | - |
| 1777710960 | 5.56° C | 56% | 1049.4 hPa | 0 mm | - | 0 W/m² | - |
| 1777710657 | 5.56° C | 57% | 1049.4 hPa | 0 mm | - | 0 W/m² | - |
| 1777710355 | 5° C | 58% | 1049.7 hPa | 0 mm | - | 0 W/m² | - |
| 1777710051 | 5° C | 58% | 1049.5 hPa | 0 mm | - | 0 W/m² | - |
| 1777709749 | 4.44° C | 60% | 1049.4 hPa | 0 mm | - | 0 W/m² | - |
| 1777709446 | 3.89° C | 62% | 1049.5 hPa | 0 mm | - | 0 W/m² | - |
| 1777709144 | 3.33° C | 67% | 1049.5 hPa | 0 mm | - | 0 W/m² | - |
| 1777708841 | 2.78° C | 69% | 1049.4 hPa | 0 mm | - | 0 W/m² | - |
| 1777708538 | 2.78° C | 70% | 1049.7 hPa | 0 mm | - | 0 W/m² | - |
| 1777708237 | 3.33° C | 70% | 1049.5 hPa | 0 mm | - | 0 W/m² | - |
| 1777707934 | 3.33° C | 70% | 1049.7 hPa | 0 mm | - | 0 W/m² | - |
| 1777707630 | 3.33° C | 69% | 1049.8 hPa | 0 mm | - | 0 W/m² | - |
| 1777707326 | 3.33° C | 69% | 1049.7 hPa | 0 mm | - | 0 W/m² | - |
| 1777707023 | 3.33° C | 69% | 1049.7 hPa | 0 mm | - | 0 W/m² | - |
| 1777706720 | 3.33° C | 69% | 1049.9 hPa | 0 mm | - | 0 W/m² | - |
| 1777706419 | 3.33° C | 68% | 1049.9 hPa | 0 mm | - | 0 W/m² | - |
| 1777706116 | 3.33° C | 67% | 1049.9 hPa | 0 mm | - | 0 W/m² | - |
* Rain latest hour (hover to see other rain measurements)
** Current wind speed in m/s (hover to see current wind gust speed)